Location: Anuling
(14.1239°N, 120.8922°E)
Time: 17:33:40
(UTC+00:00)

SWIFT - Visible Passes

Search period start: 11 April 2026 00:00
Search period end: 21 April 2026 00:00
Orbit: 379 x 382 km, 20.6° (Epoch: 11 April)

Date Brightness Start Highest point End Pass type
(mag) Time Alt. Az. Time Alt. Az. Time Alt. Az.
11 Apr 3.5 11:38:50 10° W 11:40:48 23° SW 11:40:48 23° SW visible
12 Apr 2.5 10:35:46 10° W 10:38:44 40° SSW 10:41:43 10° SE visible
13 Apr 4.0 11:11:49 10° WSW 11:13:40 15° SSW 11:14:52 12° S visible
19 Apr 3.7 21:17:21 10° SSW 21:19:42 19° SSE 21:22:04 10° ESE visible
20 Apr 4.1 20:16:24 13° SSE 20:16:24 13° SSE 20:17:50 10° SE visible
